Regional Weather Roundup
Issued by NWS

Home | Current Version | Previous Version | Graphics & Text | Print | Product List | Glossary On
Versions: 1 2 3 4 5 6 7 8 9 10 11 12 13 14 15 16 17 18 19 20 21 22 23 24 25 26 27 28 29 30 31 32 33 34 35 36 37 38 39 40 41 42 43 44 45 46 47 48 49 50
000
ASUS43 KMPX 301510
RWRMN
WEATHER ROUNDUP FOR MINNESOTA
NATIONAL WEATHER SERVICE TWIN CITIES/CHANHASSEN MN
1000 AM CDT WED JUL 30 2014


NOTE: "FAIR" INDICATES FEW OR NO CLOUDS BELOW 12,000 FEET WITH NO
SIGNIFICANT WEATHER AND/OR OBSTRUCTIONS TO VISIBILITY. N/A MEANS
CURRENT SKY AND/OR WEATHER CONDITIONS ARE NOT AVAILABLE.

MNZ060>063-068>070-301600-
   Twin Cities Metro

CITY           SKY/WX    TMP DP  RH WIND       PRES   REMARKS
TWIN CITIES    SUNNY     71  57  61 VRB3      30.09S
ST PAUL        SUNNY     70  60  70 CALM      30.09F
CRYSTAL        SUNNY     71  58  63 CALM      30.08F
BLAINE         SUNNY     70  61  73 CALM      30.09S
LAKEVILLE      SUNNY     70  61  73 CALM      30.10S
EDEN PRAIRIE   SUNNY     72  59  63 CALM      30.09S
SOUTH ST PAUL  SUNNY     70  58  66 CALM      30.09S
LAKE ELMO      FAIR      68  59  73 CALM      30.10S
$$
MNZ001>005-007-008-013>017-022>024-027-028-301600-
   Northwest Minnesota

CITY           SKY/WX    TMP DP  RH WIND       PRES   REMARKS
BEMIDJI        SUNNY     69  58  67 NW12      30.11S
HALLOCK        SUNNY     70  59  68 NW3       30.11S
ROSEAU         SUNNY     70  61  73 NW8       30.10S
WARROAD        SUNNY     70  59  68 W12       30.09S
THIEF RVR FALL SUNNY     68  57  68 NW7       30.12S
CROOKSTON      SUNNY     68  59  73 NW6       30.13S
FOSSTON        SUNNY     68  57  68 NW7       30.13S
DETROIT LAKES  SUNNY     68  57  68 NW7       30.15S
MOORHEAD       SUNNY     68  61  77 CALM      30.14S
PARK RAPIDS    SUNNY     70  58  65 NW13      30.12S
$$
MNZ006-009>011-018-025>026-301600-
   North Central Minnesota

CITY           SKY/WX    TMP DP  RH WIND       PRES   REMARKS
BAUDETTE       SUNNY     70  59  68 NW10      30.08S
FLAG ISLAND    SUNNY     68  57  68 NW13      30.05F
INTL FALLS     SUNNY     69  60  73 NW9       30.04S
WASKISH        SUNNY     70  59  68 W7        30.08S
BIG FORK       SUNNY     68  59  73 NW3       30.08S
LONGVILLE      SUNNY     68  59  73 NW6       30.09F
GRAND RAPIDS   SUNNY     66  57  72 NW8       30.08S
CRANE LAKE     SUNNY     63  61  94 CALM      30.05F
ORR            PTSUNNY   64  57  77 W5        30.03F
COOK           MOSUNNY   64  57  77 W5        30.05F
$$
MNZ012-019>021-037-301600-
   Northeast Minnesota

CITY           SKY/WX    TMP DP  RH WIND       PRES   REMARKS
DULUTH         SUNNY     66  57  72 SW7       30.06F
ELY            SUNNY     63  59  88 SW6       30.04F
HIBBING        MOSUNNY   67  59  75 VRB3      30.06F
EVELETH        MOSUNNY   59  59 100 W5        30.07S
DULUTH HARBOR  SUNNY     63  59  88 SW5       30.07S
TWO HARBORS    SUNNY     64  57  77 W6        30.03F
SILVER BAY     SUNNY     66  61  82 SW5       30.03F
GRAND MARAIS     N/A     55  51  86 W5        30.02F
G MARAIS ARPRT SUNNY     64  54  68 W5        30.04F
$$
MNZ029>031-032-039>041-046>048-054>057-064-301600-
   West Central Minnesota

CITY           SKY/WX    TMP DP  RH WIND       PRES   REMARKS
FERGUS FALLS   SUNNY     70  55  60 NW6       30.14S
WHEATON        SUNNY     66  57  72 CALM      30.16S
MORRIS         SUNNY     70  59  68 N5        30.14S
ALEXANDRIA     SUNNY     70  56  61 NW8       30.15S
ELBOW LAKE     FAIR      67  57  69 NW6       30.14S
WADENA         SUNNY     68  59  73 NW6       30.12S
GLENWOOD       SUNNY     70  59  68 NW8       30.14S
APPLETON         N/A     72  57  60 NW5       30.14S
BENSON         SUNNY     70  57  64 N8        30.14S
ORTONVILLE     SUNNY     70  55  60 CALM      30.15S
MADISON        SUNNY     72  61  68 CALM      30.15S
WILLMAR        FAIR      72  57  60 NW8       30.14F
$$
MNZ033>034-036-042>043-049>051-058-059-301600-
   Central Minnesota

CITY           SKY/WX    TMP DP  RH WIND       PRES   REMARKS
ST CLOUD       SUNNY     73  58  59 VRB3      30.10S
SAUK CENTRE    FAIR      69  56  63 NW10      30.13S
PAYNESVILLE    SUNNY     70  55  60 W6        30.13S
AITKIN         SUNNY     72  61  68 CALM      30.08S
PINE RIVER     SUNNY     70  57  64 NW7       30.13S
BRAINERD       SUNNY     68  55  63 NW7       30.10F
STAPLES        SUNNY     68  55  64 NW7       30.12R
LONG PRAIRIE   FAIR      68  55  64 NW3       30.13S
LITTLE FALLS   SUNNY     68  54  60 NW7       30.11S
LITCHFIELD     SUNNY     72  61  68 NW7       30.12F
BUFFALO        SUNNY     69  58  65 NW3       30.11F
MAPLE LAKE     SUNNY     70  61  72 NW3       30.11F
$$
MNZ037-044-045-052-053-301600-
   East Central Minnesota

CITY           SKY/WX    TMP DP  RH WIND       PRES   REMARKS
PRINCETON      SUNNY     70  61  73 N3        30.10S
MORA           SUNNY     64  57  77 CALM      30.10F
CAMBRIDGE      SUNNY     70  55  60 NW3       30.07F
RUSH CITY      SUNNY     65  56  72 CALM      30.09F
MOOSE LAKE     SUNNY     63  59  88 CALM      30.07S
HINCKLEY       FAIR      64  59  82 CALM      30.09S
CLOQUET        SUNNY     64  55  72 W3        30.07F
MCGREGOR       SUNNY     64  59  82 NW5       30.09S
$$
MNZ071>073-080-081-089-090-097-098-301600-
   Southwest Minnesota

CITY           SKY/WX    TMP DP  RH WIND       PRES   REMARKS
MONTEVIDEO     SUNNY     72  64  78 N6        30.15S
GRANITE FALLS  SUNNY     67  59  76 NW5       30.16S
CANBY          SUNNY     70  56  61 N3        30.17S
MARSHALL       SUNNY     68  57  68 N3        30.15S
REDWOOD FALLS  SUNNY     70  58  65 NW6       30.14S
OLIVIA         SUNNY     70  59  68 NW6       30.13S
PIPESTONE      MOSUNNY   70  55  60 NW5       30.17S
WINDOM         SUNNY     70  57  64 NW6       30.15S
WORTHINGTON    SUNNY     68  55  64 NW8       30.18S
JACKSON        SUNNY     68  55  64 N3        30.16S
TRACY          SUNNY     69  58  68 NW6       30.16S
SLAYTON        SUNNY     68  58  68 CALM      30.18R
$$
MNZ065>067-074>077-082>085-091>093-301600-
   South Central Minnesota

CITY           SKY/WX    TMP DP  RH WIND       PRES   REMARKS
MANKATO        SUNNY     68  55  64 NW5       30.12S
NEW ULM        SUNNY     68  61  77 NW6       30.13S
ST JAMES       SUNNY     72  57  60 NW5       30.14S
FAIRMONT       SUNNY     70  55  60 NW6       30.14S
GLENCOE        SUNNY     71  58  62 N6        30.11S
FARIBAULT      SUNNY     73  55  53 CALM      30.11S
OWATONNA       SUNNY     70  59  68 NW5       30.11S
WASECA         SUNNY     68  57  68 CALM      30.13S
ALBERT LEA     SUNNY     70  59  68 NW3       30.12S
$$
MNZ078>079-086>088-094>096-301600-
   Southeast Minnesota

CITY           SKY/WX    TMP DP  RH WIND       PRES   REMARKS
ROCHESTER      SUNNY     68  58  70 N7        30.12S
RED WING       SUNNY     68  61  77 CALM      30.08S
STANTON        SUNNY     70  59  68 CALM      30.09S
DODGE CENTER   SUNNY     70  57  64 N5        30.11S
WINONA         SUNNY     70  57  64 NW5       30.09S
AUSTIN         SUNNY     70  57  64 N3        30.11S
PRESTON        SUNNY     66  62  89 NE6       30.11S
$$
ABBREVIATIONS USED IN REMARKS
   TC - TEMPERATURES IN CELSIUS
  WCI - WIND CHILL INDEX
   HX - HEAT INDEX
  VSB - VISIBILITY
$$



USA.gov is the U.S. government's official web portal to all federal, state and local government web resources and services.